Location: Melita
(38.4566°N, 122.6369°W)
Time: 21:23:11
(UTC+00:00)

Okean O Rocket - Pass Details

Date: 24 January 2020
Orbit: 623 x 645 km, 98.2° (Epoch: 17 February)

Event Time Altitude Azimuth Distance (km) Brightness Sun altitude
Rises 14:07:27 0° 8° (N) 2,958 5.0 -14.7°
Reaches altitude 10° 14:09:41 10° 5° (N) 2,042 4.1 -14.3°
Maximum altitude 14:14:03 61° 286° (WNW) 729 1.6 -13.4°
Drops below altitude 10° 14:18:23 10° 206° (SSW) 2,015 4.1 -12.6°
Sets 14:20:35 0° 203° (SSW) 2,916 4.9 -12.2°
